Location: Bun
(42.9667°N, 0.1500°W)
Time: 04:46:32
(UTC+00:00)

COSMOS 2428 - Pass Details

Date: 03 February 2023
Orbit: 843 x 858 km, 70.9° (Epoch: 26 March)

Event Time Altitude Azimuth Distance (km) Brightness Sun altitude
Rises 20:08:21 0° 211° (SSW) 3,390 6.1 -31.8°
Reaches altitude 10° 20:10:49 10° 214° (SW) 2,458 5.4 -32.3°
Enters shadow 20:14:28 41° 230° (SW) 1,215 3.7 -32.9°
